Location: Val-d'Or
(48.1170°N, 77.7670°W)
Time: 12:25:41
(UTC-05:00)

N. Korean satellite - Visible Passes

Search period start: 23 January 2019 00:00
Search period end: 02 February 2019 00:00
Orbit: 458 x 509 km, 97.2° (Epoch: 22 January)

Date Brightness Start Highest point End Pass type
(mag) Time Alt. Az. Time Alt. Az. Time Alt. Az.
23 Jan 6.7 06:30:22 10° NNE 06:34:06 79° ESE 06:37:45 10° S visible
23 Jan 10.0 18:44:30 10° WSW 18:46:33 14° W 18:48:36 10° NW visible
24 Jan 8.1 06:05:52 10° NNE 06:09:22 39° E 06:12:49 10° SSE visible
24 Jan 9.2 18:18:32 10° SSW 18:21:40 25° W 18:24:50 10° NW visible
25 Jan 9.4 05:41:40 10° NE 05:44:33 21° E 05:47:24 10° SE visible
25 Jan 7.8 17:53:17 10° S 17:56:53 48° W 18:00:31 10° NNW visible
26 Jan 10.2 05:18:18 10° ENE 05:19:39 12° E 05:20:59 10° ESE visible
26 Jan 6.6 06:49:50 10° N 06:53:30 60° WNW 06:57:04 10° SSW visible
27 Jan 6.9 06:25:08 10° NNE 06:28:50 69° E 06:32:26 10° S visible
27 Jan 9.9 18:38:52 10° SW 18:41:14 16° W 18:43:37 10° NW visible
28 Jan 8.4 06:00:41 10° NNE 06:04:05 34° E 06:07:24 10° SSE visible
28 Jan 9.0 18:13:06 10° SSW 18:16:22 29° W 18:19:40 10° NNW visible
29 Jan 9.6 05:36:35 10° NE 05:39:14 19° E 05:41:50 10° SE visible
29 Jan 7.5 17:47:56 10° S 17:51:35 55° W 17:55:18 10° NNW visible
30 Jan 6.5 06:44:34 10° N 06:48:13 69° WNW 06:51:47 10° SSW visible
31 Jan 7.2 06:19:54 10° NNE 06:23:32 59° E 06:27:04 10° S visible
31 Jan 9.8 18:33:16 10° SW 18:35:54 18° W 18:38:32 10° NW visible
01 Feb 8.7 05:55:29 10° NNE 05:58:44 30° E 06:01:55 10° SSE visible
01 Feb 8.7 18:07:39 10° SSW 18:11:03 33° W 18:14:28 10° NNW visible
